Regional Weather Roundup
Issued by NWS

Home | Current Version | Previous Version | Text Only | Print | Product List | Glossary On
Versions: 1 2 3 4 5 6 7 8 9 10 11 12 13 14 15 16 17 18 19 20 21 22 23 24 25 26 27 28 29 30 31 32 33 34 35 36 37 38 39 40 41 42 43 44 45 46 47 48 49 50
000
ASUS44 KMEG 140210
RWRTN
TENNESSEE HOURLY STATE WEATHER ROUNDUP
NATIONAL WEATHER SERVICE MEMPHIS TN
800 PM CST SAT FEB 13 2016

TNZ002-004-019-021-049-052-054-088>092-140300-
WEST TENNESSEE

CITY           SKY/WX    TMP DP  RH WIND       PRES   REMARKS
MEMPHIS INTL   CLOUDY    33   9  36 E9        30.41F WCI  25
NWS MEMPHIS      N/A     30 N/A N/A MISG        N/A
JACKSON        CLOUDY    30   6  36 E7        30.44F WCI  23
DYERSBURG      CLOUDY    28   9  43 E7        30.47F WCI  21
UNION CITY     CLOUDY    27   7  43 E5        30.44F WCI  21
PARIS          CLOUDY    25   3  39 E9        30.45F WCI  15
LEXINGTON      CLOUDY    28   1  31 NE5       30.42F WCI  23
$$

TNZ008-025-027-028-033-062-065-066-140300-
NORTH MIDDLE TENNESSEE

CITY           SKY/WX    TMP DP  RH WIND       PRES   REMARKS
NASHVILLE      CLOUDY    27   4  37 NE8       30.49F WCI  19
CLARKSVILLE    CLOUDY    26   6  42 NE7       30.48F WCI  18
SMYRNA         CLOUDY    26   6  42 N7        30.50F WCI  18
COOKEVILLE     CLEAR     21   5  49 CALM      30.42F
CROSSVILLE     CLOUDY    21   3  45 NE7       30.38F WCI  12
$$

TNZ061-075-076-078-094-096-097-140300-
SOUTH MIDDLE TENNESSEE

CITY           SKY/WX    TMP DP  RH WIND       PRES   REMARKS
FAYETTEVILLE   CLOUDY    27   5  39 N10       30.43F WCI  17
TULLAHOMA      CLEAR     21   3  45 N5        30.44R WCI  15
WINCHESTER     PTCLDY    25   7  46 N6        30.44S WCI  18
MCMINNVILLE    PTCLDY    23   7  50 NE6       30.44S WCI  16
COLUMBIA       MOCLDY    28   7  40 NE8       30.43F WCI  20
SHELBYVILLE    CLEAR     25   9  50 CALM      30.47F
$$

TNZ017-018-042-046-047-140300-
NORTHEAST TENNESSEE

CITY           SKY/WX    TMP DP  RH WIND       PRES   REMARKS
TRI CITIES     CLEAR     18   3  52 CALM      30.42R
$$

TNZ012-013-036-069-073-074-140300-
CENTRAL EAST TENNESSEE

CITY           SKY/WX    TMP DP  RH WIND       PRES   REMARKS
KNOXVILLE      CLEAR     24   7  48 NE6       30.45R WCI  17
OAK RIDGE      CLEAR     25   2  37 N3        30.47S
GATLINBURG     CLEAR     19   3  49 CALM      30.45R
MORRISTOWN     PTCLDY    21   3  45 N8        30.42R WCI  12
$$

TNZ083-085-099-140300-
SOUTHEAST TENNESSEE

CITY           SKY/WX    TMP DP  RH WIND       PRES   REMARKS
CHATTANOOGA    PTCLDY    30   5  34 N9        30.44S WCI  22
$$

SKY/WX REPORTED AS FAIR MEANS FEW OR NO CLOUDS BELOW
12 THOUSAND FEET.




USA.gov is the U.S. government's official web portal to all federal, state and local government web resources and services.